User: anonymous   Login
Location: *
(51.5000°N, 0.1100°W)
Time: 07:07:06
(UTC+00:00)
Language:

Cosmos 2098 Rocket - Orbit

View from above orbital plane
View from above orbital plane
View from above satellite
View from above satellite

Ground track
Ground track

The orbit data is extracted from the following two-line orbital elements,

1 20775U 90078B   24205.58959313  .00024960  00000-0  97778-3 0  9993
2 20775  82.9125  54.9916 0464437 175.2112 185.3785 14.61920422721649
Epoch (UTC): 23 July 2024 14:09:00
Eccentricity: 0.0464437
inclination: 82.9125°
perigee height: 359 km
apogee height: 1015 km
right ascension of ascending node: 54.9916°
argument of perigee: 175.2112°
revolutions per day: 14.61920422
mean anomaly at epoch: 185.3785°
orbit number at epoch: 72164

The dashed part of the orbit path shows where the satellite is in the earth's shadow,  

DLR